Flag for U.S.A. Weather past 2 weeks in Kalamazoo, Michigan, U.S.A.

Now
67 °F

Fog.


Feels Like: 67 °F
Forecast: 47 / 65 °F
Wind: 10 mph from South

Location: Kalamazoo / Battle Creek International Airport

Current Time: Sep 21, 2014 at 3:05:57 AM

Latest Report: Sep 21, 2014 at 1:53 AM


Visibility: 5 mi

Pressure: 29.70 "Hg

Humidity: 93%

Dew point: 65 °F

Location of KalamazooLocation

Historic Weather in Kalamazoo — Graph

°F

Kalamazoo temperature yesterday

Maximum temperature yesterday: 81 °F (at 2:53 PM)
Minimum temperature yesterday: 56 °F (at 2:53 AM)
Average temperature yesterday: 65 °F

Past Weeks' High & Low Weather Summary

 TemperatureHumidityPressure
High81 °F (Sep 20, 2:53 PM)97% (Sep 16, 6:53 AM)30.36 "Hg (Sep 16, 6:53 AM)
Low39 °F (Sep 17, 4:53 AM)40% (Sep 8, 1:53 PM)29.56 "Hg (Sep 10, 4:53 PM)
Average59 °F75%30.10 "Hg
* Reported Sep 6 1:53 AM — Sep 21 1:53 AM, Kalamazoo, Weather by CustomWeather, © 2014

Note: Actual official high and low records may vary slightly from our data, if they occured in-between our weather recording intervals... More about our weather records

Advertising

Kalamazoo weather history for previous 24 hours

 ConditionsComfort  
Time TempWeatherWind HumidityBarometerVisibility
1:53 AM
Sep 21
67 °FFog.10 mph93%29.70 "Hg5 mi
1:02 AM67 °FFog.9 mph93%29.74 "Hg4 mi
12:53 AM67 °FFog.9 mph90%29.74 "Hg5 mi
11:53 PM
Sep 20
65 °FFog.10 mph94%29.77 "Hg3 mi
10:53 PM63 °FFog.7 mph90%29.78 "Hg6 mi
9:53 PM62 °FPassing clouds.8 mph93%29.80 "Hg10 mi
9:03 PM65 °FPassing clouds.10 mph91%29.82 "Hg10 mi
8:53 PM66 °FPassing clouds.13 mph90%29.81 "Hg10 mi
7:53 PM67 °FFog.8 mph93%29.79 "Hg5 mi
6:53 PM69 °FFog.5 mph93%29.80 "Hg6 mi
6:02 PM70 °FLight rain. Fog.10 mph90%29.81 "Hg5 mi
5:53 PM70 °FThundershowers. Fog.8 mph90%29.81 "Hg4 mi
4:53 PM75 °FBroken clouds.10 mph71%29.81 "Hg10 mi
3:53 PM78 °FLight rain. Mostly cloudy.12 mph62%29.83 "Hg10 mi
2:53 PM81 °FSunny.18 mph56%29.83 "Hg10 mi
1:53 PM79 °FPassing clouds.16 mph58%29.86 "Hg10 mi
8:53 AM60 °FSunny.12 mph78%29.94 "Hg9 mi
7:53 AM58 °FPassing clouds.9 mph78%29.95 "Hg9 mi
6:53 AM57 °FClear.10 mph78%29.96 "Hg10 mi
5:53 AM56 °FPassing clouds.8 mph77%29.98 "Hg10 mi
4:53 AM57 °FPassing clouds.12 mph74%29.95 "Hg10 mi
3:53 AM56 °FPassing clouds.9 mph77%29.97 "Hg10 mi
Weather by CustomWeather, © 2014

See weather overviewHow to use our weather pages